Location: Quedlinburg
(51.7921°N, 11.1414°E)
Time: 05:57:03
(UTC+02:00)

METEOR M2 - Pass Details

Date: 22 March 2026
Orbit: 817 x 824 km, 98.5° (Epoch: 17 April)

Event Time Altitude Azimuth Distance (km) Brightness Sun altitude
Rises 04:53:43 0° 14° (NNE) 3,375 ? -13.0°
Reaches altitude 10° 04:56:04 10° 15° (NNE) 2,437 ? -12.7°
Maximum altitude 05:01:29 89° 289° (WNW) 832 ? -11.9°
Drops below altitude 10° 05:06:52 10° 198° (SSW) 2,418 ? -11.1°
Sets 05:09:12 0° 198° (SSW) 3,345 ? -10.7°
